Location: Chisholm
(54.9102°N, 114.1701°W)
Time: 03:58:44
(UTC+00:00)

ISS - Pass Details

Date: 27 November 2021
Orbit: 413 x 422 km, 51.6° (Epoch: 23 January)

Event Time Altitude Azimuth Distance (km) Brightness Sun altitude
Rises 00:26:42 0° 230° (SW) 2,379 1.8 -9.3°
Reaches altitude 10° 00:28:58 10° 219° (SW) 1,514 0.2 -9.6°
Maximum altitude 00:31:57 28° 158° (SSE) 820 -2.3 -10.0°
Enters shadow 00:34:37 12° 99° (E) 1,404 -1.6 -10.4°
